Theta_e
328 319 316 317 316 315 313 312 311 314 321 322 324 328 332 335 336 334 336 337 339 340 344 345 344 344 341 343 345 345 348 353 359 351 350 350 350 354 356 357 364 363 366 367
320 315 319 318 317 315 313 311 312 320 324 323 321 325 331 333 334 336 335 337 337 339 341 343 346 344 339 339 343 345 348 355 355 353 354 354 357 354 355 357 362 365 366 367
316 318 320 316 315 312 313 310 310 310 316 322 324 321 326 332 334 336 336 337 338 338 338 340 342 342 341 341 344 345 351 355 360 361 358 358 359 361 356 356 357 360 365 366
316 320 315 313 312 313 309 313 312 312 313 310 319 308 324 328 328 331 335 335 336 338 340 340 340 340 339 341 345 346 351 355 357 364 363 368 355 353 353 356 356 356 362 363
315 315 312 312 312 314 311 314 314 314 313 312 313 313 320 328 327 329 333 336 336 339 340 340 340 341 341 343 343 346 353 359 362 365 368 359 361 358 356 358 366 369 366 365
318 320 317 315 315 315 315 314 315 315 314 307 311 312 309 322 327 330 333 335 337 338 340 341 344 344 343 344 344 346 351 361 364 362 363 365 366 362 358 359 356 358 360 361
314 314 316 316 314 317 314 312 305 305 305 302 313 313 315 321 328 331 332 334 337 339 340 341 342 343 345 345 346 347 353 360 363 361 363 363 365 367 366 363 356 361 355 356
309 307 314 318 316 313 314 313 306 301 303 305 313 307 313 325 329 331 334 336 337 337 339 340 343 343 344 346 347 349 354 360 355 361 365 368 369 359 358 360 355 355 352 355
311 310 317 317 318 317 314 311 316 308 310 307 309 315 323 325 326 329 330 333 333 335 336 337 340 343 345 346 347 350 357 362 361 356 364 365 366 364 361 370 362 356 362 354
315 309 316 317 318 318 315 317 309 310 302 301 307 307 314 320 324 328 329 329 332 334 336 336 339 342 345 347 348 349 351 354 356 352 354 355 356 361 361 360 364 365 366 370
316 314 313 318 314 313 314 312 312 312 310 304 303 306 318 323 326 326 328 328 331 335 338 342 344 347 347 348 348 347 348 348 349 350 352 352 352 353 357 356 362 364 364 371
318 314 310 312 317 317 315 313 314 308 306 311 308 311 320 318 327 329 330 333 336 339 341 345 346 347 347 347 348 347 348 349 350 352 354 351 351 357 354 358 359 362 365 372
318 313 308 309 313 316 313 315 314 314 313 308 306 309 324 327 330 331 331 336 341 342 343 345 346 348 349 349 350 350 351 351 352 353 352 353 352 352 354 357 359 362 368 368
320 314 311 307 310 314 311 312 313 313 308 308 309 314 320 323 328 331 333 337 340 341 343 345 346 348 349 351 351 351 350 352 353 353 353 355 356 357 356 359 363 361 367 369
318 311 314 313 312 312 311 311 312 311 312 309 311 312 316 323 328 331 335 336 338 340 341 342 343 347 349 351 353 352 352 354 358 357 357 357 361 362 363 364 364 364 365 368
319 312 313 311 313 312 310 311 312 312 313 313 313 312 320 328 332 333 331 334 336 340 341 343 346 347 348 349 350 353 355 356 356 355 356 360 363 363 363 364 365 367 365 369
315 314 312 308 313 312 308 312 312 312 314 313 310 315 320 324 326 330 332 332 337 340 343 345 346 346 347 349 350 349 353 354 356 356 357 357 359 358 360 363 363 364 362 364
316 315 313 309 312 303 313 318 316 313 313 316 316 317 322 324 332 333 335 339 341 342 343 344 343 342 342 343 345 347 348 351 351 351 351 353 353 354 357 357 358 359 359 360
319 315 311 308 307 311 312 315 314 313 312 316 316 318 323 330 334 336 341 343 343 344 341 339 340 340 341 342 343 342 340 340 340 340 341 344 344 346 350 352 354 358 356 356
319 318 312 310 305 303 312 316 319 318 309 319 321 321 326 330 325 333 341 342 337 336 337 337 339 339 338 338 339 338 337 338 337 338 339 341 342 342 341 343 346 351 354 351
313 314 310 309 307 310 318 318 320 309 313 323 323 324 329 327 329 338 336 334 334 335 336 336 336 334 335 336 336 334 335 334 336 337 337 338 339 339 340 343 343 344 346 350
313 311 309 311 307 305 320 318 313 320 325 325 325 328 329 331 333 333 334 333 333 335 334 333 333 333 334 335 335 333 334 335 336 335 335 335 336 334 333 336 337 339 342 343
311 316 313 314 313 322 322 321 323 324 327 326 327 330 332 329 330 332 331 332 334 334 333 333 333 333 335 335 334 332 335 335 333 333 333 334 335 335 334 334 335 331 339 334
318 321 317 317 319 321 323 324 324 326 327 329 329 330 332 329 330 330 330 331 333 333 332 331 331 331 333 332 332 331 333 333 332 332 333 333 332 331 333 330 330 329 328 327
317 319 317 317 320 323 322 324 325 326 327 328 329 331 332 331 330 331 330 332 333 333 332 333 332 331 330 331 330 330 332 334 332 332 332 332 330 330 329 331 329 327 331 322
320 319 315 314 322 322 323 326 326 324 326 328 328 328 333 332 331 331 332 334 334 333 333 333 332 330 329 330 331 333 333 333 331 329 328 328 327 327 328 328 328 316 315 312
Wind_Speed
11 11 10 11 9 6 6 7 6 9 6 6 7 13 12 12 12 14 14 14 17 18 19 19 18 21 22 20 20 18 11 11 4 7 7 7 7 7 7 5 7 2 6 5
9 16 6 4 7 10 8 8 11 11 9 3 2 14 14 14 13 14 15 16 17 18 18 18 22 23 23 24 20 14 13 9 10 9 7 7 6 7 6 6 4 6 6 5
14 13 8 7 11 7 12 7 10 9 5 12 15 8 10 15 13 13 14 15 17 17 19 19 19 21 21 23 19 20 17 14 12 12 8 7 6 4 4 6 6 8 9 8
11 8 4 10 9 8 10 6 6 8 12 8 15 7 16 15 13 13 15 16 18 19 19 19 21 21 24 21 19 19 16 15 13 13 10 10 8 9 10 8 8 5 8 8
13 8 5 11 9 7 10 5 10 10 14 7 13 9 14 19 18 18 17 18 18 20 20 22 21 21 22 21 20 19 17 15 14 13 12 9 10 8 8 5 4 6 6 9
13 7 8 9 7 5 8 14 15 13 13 11 5 15 12 18 16 18 18 17 17 20 19 18 20 21 20 21 21 20 18 15 14 14 15 14 11 12 8 7 6 7 9 9
18 15 4 6 14 10 11 19 7 7 6 5 5 13 4 12 20 18 19 17 18 16 18 17 19 20 21 22 21 19 18 16 15 16 15 16 15 13 12 10 9 8 6 6
11 12 15 8 7 13 11 14 4 6 4 4 1 12 4 16 9 18 15 15 14 14 15 18 19 19 20 21 21 19 16 17 17 16 16 14 14 11 12 12 11 7 9 8
3 7 6 2 6 9 5 8 12 13 10 9 5 12 16 15 16 15 13 11 10 9 10 10 15 18 19 19 19 17 15 16 16 17 13 14 13 14 12 10 9 9 10 10
6 10 4 10 8 11 13 10 8 6 4 6 9 16 12 6 18 16 18 15 11 9 8 6 1 10 11 14 16 16 14 13 14 17 16 14 15 14 13 12 12 11 9 8
15 13 6 12 3 12 7 11 9 9 8 10 5 6 3 20 16 18 17 12 15 10 9 7 7 7 5 7 10 14 15 15 15 16 16 14 14 15 13 14 12 11 11 10
9 12 11 7 10 4 10 16 14 9 2 15 4 3 28 38 16 16 19 14 14 11 10 10 11 11 9 8 8 10 12 14 15 15 14 14 15 13 13 13 13 12 12 11
5 10 11 11 15 12 9 1 12 13 14 7 5 2 11 6 13 13 17 15 12 11 12 12 12 12 11 11 9 10 9 9 8 11 13 13 13 11 13 13 13 12 11 11
4 15 18 10 11 11 1 4 6 15 10 6 3 17 17 9 11 6 16 15 14 12 12 12 12 11 10 9 8 7 6 3 7 6 5 7 10 10 11 10 10 11 10 10
10 17 14 4 3 7 11 10 9 11 14 15 11 11 4 9 14 10 12 13 13 12 12 12 12 11 10 8 7 4 5 4 9 3 2 4 4 6 6 8 8 8 9 10
13 15 8 8 12 10 11 12 13 14 14 14 14 13 11 15 10 7 7 13 13 12 10 10 9 8 10 8 8 6 6 5 4 3 3 5 5 4 6 7 8 7 9 8
14 10 9 10 12 8 10 13 15 15 15 15 14 10 6 9 5 7 9 12 14 13 12 11 10 9 9 9 8 7 5 5 5 5 5 5 4 3 3 6 6 5 6 6
13 10 11 11 11 13 15 7 9 11 14 13 11 9 5 0 8 6 10 13 14 13 12 10 9 10 10 10 9 7 9 7 7 7 7 6 6 6 6 3 3 4 6 7
15 12 10 12 12 14 15 13 10 11 12 12 11 8 11 8 12 10 12 14 15 14 12 11 10 10 8 8 9 9 9 8 7 7 7 7 7 8 8 7 7 5 6 8
17 12 12 13 16 16 13 7 6 6 12 12 7 8 14 15 12 11 14 15 15 13 12 11 11 11 9 8 7 7 6 6 6 6 7 7 8 8 8 8 8 9 8 8
11 14 18 15 16 17 10 6 3 10 2 7 7 8 14 13 2 23 18 15 13 12 12 11 10 9 8 7 6 5 5 6 6 7 7 7 7 9 9 8 8 9 10 10
16 13 13 16 19 18 8 6 8 6 5 6 5 11 13 13 17 19 17 15 14 13 13 12 10 9 8 7 5 4 5 6 7 7 7 7 7 7 7 9 9 9 9 10
21 16 13 16 9 13 4 8 8 10 9 3 7 12 13 14 17 17 15 15 13 12 9 11 10 8 7 6 5 6 5 6 8 8 8 7 6 6 7 8 8 9 8 9
19 19 18 17 17 16 9 7 9 8 5 9 7 11 16 15 18 16 15 13 12 10 9 7 7 7 6 4 4 4 5 6 7 7 8 7 8 4 6 7 7 7 8 9
12 15 16 16 14 20 5 10 9 9 10 10 9 9 16 16 17 16 14 13 11 10 8 7 6 5 5 5 5 5 4 5 7 8 8 7 7 8 8 6 6 7 6 8
11 15 10 8 13 13 14 12 12 15 9 11 13 15 16 15 17 14 14 12 11 10 9 8 7 6 5 5 4 5 5 5 7 7 6 7 8 8 8 8 8 5 5 4
Wind_Direction
185 288 272 25 32 311 314 319 112 78 109 235 173 136 158 171 160 156 166 176 186 190 185 184 191 177 192 195 197 198 193 226 194 207 205 215 223 221 243 238 196 225 194 204
232 243 44 329 302 289 283 278 92 131 143 203 228 136 160 178 179 168 171 179 182 179 168 174 181 187 190 191 191 184 206 207 198 203 211 222 217 232 226 247 229 216 232 214
270 310 359 286 279 300 293 22 7 331 204 214 156 119 166 177 186 172 178 180 180 180 168 173 186 184 190 195 193 190 195 206 206 228 201 204 248 266 260 236 231 222 235 210
259 271 303 274 293 291 309 12 290 273 272 205 230 131 203 185 188 188 187 188 183 186 184 180 184 190 191 194 199 202 200 205 209 210 243 211 220 206 215 218 218 217 214 230
196 218 275 299 315 328 308 320 277 284 257 200 196 120 156 169 180 190 200 191 191 187 193 187 189 194 200 201 201 206 206 206 214 201 226 223 223 229 238 228 209 205 227 215
286 297 282 288 298 255 298 262 238 219 243 229 141 117 289 172 170 184 194 193 197 189 196 201 191 198 203 207 208 207 207 201 205 221 205 231 236 229 253 217 229 218 215 210
211 225 171 248 251 207 226 244 259 251 200 157 264 49 231 110 141 180 183 193 191 195 184 203 207 202 204 211 211 211 202 196 202 210 219 213 226 234 242 248 242 252 249 228
219 156 195 164 283 339 322 315 285 181 339 325 54 128 288 121 106 148 160 172 174 188 193 191 205 215 211 208 210 207 201 186 201 212 216 218 220 228 232 233 251 253 243 262
172 149 153 145 306 292 294 261 357 308 186 103 352 153 139 146 146 132 115 115 131 174 178 187 201 203 218 207 206 206 199 184 190 205 216 223 223 231 250 254 256 232 241 263
354 259 151 138 233 230 276 351 263 262 193 279 166 227 147 139 150 138 119 117 125 132 102 84 328 185 199 213 197 192 199 201 200 213 213 222 226 226 234 241 245 259 267 243
283 275 160 219 245 357 312 235 231 310 330 315 269 54 149 179 171 128 126 130 125 131 116 109 98 96 137 192 182 186 187 201 211 216 225 223 228 226 224 233 237 235 235 244
238 323 290 315 68 310 270 282 302 272 42 291 335 200 129 281 125 143 116 123 112 112 113 121 116 119 122 123 150 175 186 200 210 217 215 219 225 237 236 218 234 233 225 218
285 245 265 280 160 170 244 59 287 294 312 327 346 60 305 57 116 136 123 124 131 131 125 129 125 118 127 132 135 138 164 169 220 203 220 216 227 230 237 241 235 235 231 219
300 278 287 298 14 346 63 212 289 300 287 302 274 154 207 152 132 130 127 142 147 141 132 120 131 134 124 126 127 138 170 163 185 275 212 212 210 229 234 239 227 241 233 234
244 266 285 293 294 283 300 301 292 281 302 313 343 351 89 141 149 156 144 149 147 146 142 142 131 129 137 123 115 116 58 47 17 43 246 219 283 282 279 281 285 269 241 240
235 259 286 268 282 250 258 268 272 272 274 281 285 288 299 103 107 147 201 167 166 134 129 114 125 127 117 118 105 94 72 54 71 61 29 1 334 294 274 281 284 262 259 251
244 250 249 262 284 290 252 256 255 255 261 269 261 275 351 112 149 177 193 195 153 143 143 133 122 106 109 110 98 101 89 77 77 71 54 33 12 341 311 351 320 301 308 305
254 238 274 274 279 263 270 322 338 309 298 289 261 268 147 147 107 160 162 139 138 130 122 121 118 107 89 79 82 71 84 63 56 48 38 23 7 350 336 294 297 285 271 260
261 268 259 257 252 261 270 253 243 233 265 244 258 250 125 134 125 119 119 130 134 141 138 121 99 88 84 92 91 79 68 60 53 38 25 9 0 350 339 325 318 279 270 280
244 266 253 253 257 268 291 340 348 305 255 237 194 235 142 159 186 138 141 139 141 130 121 121 123 118 103 90 86 81 68 50 29 6 349 342 337 332 326 320 315 311 291 286
204 239 257 241 248 260 248 289 94 254 18 77 170 176 159 200 279 139 142 127 126 121 110 97 85 88 82 67 70 61 44 22 355 339 332 327 327 320 300 313 314 307 302 304
209 215 235 247 255 248 251 233 234 296 145 165 179 157 172 118 129 140 136 139 126 119 132 125 118 107 83 59 45 31 15 350 337 329 321 326 323 322 326 322 312 306 297 285
243 242 224 244 253 225 219 301 269 252 328 155 171 162 154 155 148 143 144 144 132 136 139 120 125 119 102 69 31 4 3 334 327 320 327 324 327 314 332 311 305 295 271 268
260 225 253 243 247 271 173 247 284 288 187 285 187 179 162 172 153 153 147 143 139 137 134 122 134 106 100 70 31 348 356 333 320 324 320 315 308 331 310 315 310 321 322 324
265 260 251 254 253 271 224 269 241 245 231 222 262 222 172 171 157 158 150 143 136 126 127 105 91 90 77 39 19 15 356 331 326 328 321 310 321 339 320 315 341 328 343 16
273 261 260 237 245 261 257 236 246 241 223 230 224 231 173 176 158 158 144 140 139 132 128 122 111 91 57 35 23 34 7 10 3 331 337 5 341 335 333 332 326 179 168 234